Temp
5 5 5 5 4 4 3 3 2 2 2 2 2 2 2 2 2 1 1 1 1 1 1 1 1 1 1 1 1 1 1 1 1 0 1 1 1 1 2 3 4 5 5
5 4 4 4 3 2 2 1 1 1 1 0 -0 -0 -1 -1 -1 -1 -1 -1 -1 -1 -1 -0 -0 -0 0 0 0 0 1 0 -0 0 -1 -1 1 1 0 1 3 3 4
4 4 3 2 1 0 -0 -0 -1 -1 -1 -2 -2 -2 -3 -3 -3 -3 -3 -3 -3 -3 -3 -3 -2 -2 -1 -1 -0 -0 0 0 -0 -1 -0 -1 -2 -2 -3 -2 -1 2 3
2 1 1 0 -0 -1 -1 -2 -2 -3 -3 -3 -3 -4 -4 -4 -4 -4 -4 -4 -4 -4 -4 -4 -4 -4 -3 -3 -2 -1 -0 -0 -0 -1 -1 -1 -2 -3 -3 -4 -4 -3 -1
0 -0 -1 -1 -1 -2 -2 -3 -3 -4 -5 -5 -5 -5 -5 -6 -6 -6 -5 -5 -6 -6 -5 -5 -5 -5 -5 -4 -4 -3 -2 -1 -1 -1 -2 -2 -2 -3 -4 -4 -4 -4 -4
-1 -2 -2 -2 -2 -3 -4 -4 -5 -5 -5 -6 -6 -6 -6 -6 -7 -7 -7 -7 -7 -7 -7 -6 -6 -6 -6 -6 -5 -5 -4 -3 -2 -2 -2 -3 -3 -4 -4 -4 -4 -5 -5
-2 -2 -3 -3 -4 -4 -5 -5 -6 -6 -6 -6 -6 -7 -7 -7 -8 -8 -8 -8 -8 -8 -8 -8 -8 -7 -7 -6 -6 -5 -5 -4 -3 -3 -2 -3 -3 -4 -4 -4 -5 -5 -5
-3 -3 -3 -4 -5 -5 -6 -6 -6 -7 -7 -7 -8 -8 -8 -9 -9 -9 -9 -10 -10 -10 -9 -9 -9 -8 -8 -7 -7 -6 -5 -5 -3 -3 -2 -2 -3 -4 -4 -5 -5 -5 -5
-3 -3 -4 -5 -6 -6 -6 -7 -7 -7 -8 -9 -9 -9 -10 -10 -10 -11 -11 -11 -11 -11 -11 -10 -10 -9 -9 -8 -8 -7 -6 -6 -5 -4 -2 -4 -3 -4 -4 -5 -5 -5 -5
-3 -4 -5 -6 -6 -7 -7 -7 -8 -8 -9 -10 -10 -10 -11 -11 -12 -12 -12 -12 -11 -11 -11 -11 -11 -10 -10 -9 -9 -9 -8 -6 -5 -4 -3 -3 -4 -4 -5 -5 -6 -6 -6
-4 -4 -6 -6 -7 -8 -8 -8 -9 -10 -10 -10 -11 -11 -12 -12 -13 -13 -13 -12 -12 -12 -12 -12 -12 -11 -10 -9 -9 -9 -8 -7 -6 -5 -4 -4 -5 -5 -5 -6 -6 -6 -6
-4 -5 -6 -7 -7 -8 -8 -9 -10 -10 -10 -11 -12 -12 -13 -13 -14 -14 -13 -13 -13 -12 -13 -12 -12 -10 -10 -9 -8 -7 -7 -6 -5 -4 -5 -5 -5 -6 -6 -7 -6 -6 -6
-5 -6 -7 -7 -7 -8 -10 -11 -10 -11 -12 -12 -12 -13 -13 -14 -14 -14 -14 -14 -13 -13 -13 -12 -11 -10 -9 -8 -6 -5 -6 -6 -5 -5 -5 -6 -6 -6 -6 -6 -7 -7 -6
-5 -7 -7 -7 -8 -9 -11 -11 -12 -12 -13 -13 -13 -13 -14 -14 -14 -14 -14 -14 -14 -13 -12 -11 -9 -7 -6 -6 -5 -5 -6 -6 -6 -6 -6 -7 -6 -6 -7 -6 -7 -7 -7
-6 -7 -7 -8 -9 -10 -11 -12 -12 -13 -13 -13 -13 -14 -14 -14 -15 -14 -14 -14 -13 -13 -11 -11 -9 -7 -6 -6 -6 -6 -6 -6 -6 -7 -7 -6 -6 -7 -7 -7 -7 -7 -7
-7 -8 -8 -8 -10 -10 -10 -12 -13 -13 -13 -14 -14 -14 -14 -15 -15 -15 -15 -14 -13 -13 -12 -11 -10 -7 -6 -6 -6 -6 -6 -6 -6 -6 -7 -7 -7 -7 -7 -7 -7 -7 -7
-8 -8 -8 -9 -10 -11 -12 -12 -11 -12 -13 -14 -15 -15 -15 -15 -15 -16 -15 -14 -14 -13 -12 -12 -11 -9 -8 -6 -6 -6 -6 -6 -7 -7 -7 -7 -7 -7 -7 -7 -7 -7 -6
-8 -8 -9 -10 -11 -12 -13 -13 -13 -13 -13 -13 -14 -16 -16 -16 -16 -16 -16 -15 -14 -12 -13 -12 -12 -10 -9 -8 -8 -8 -7 -7 -7 -7 -7 -8 -7 -7 -7 -7 -7 -7 -6
-8 -9 -9 -10 -11 -13 -13 -13 -14 -14 -15 -15 -15 -15 -16 -17 -16 -16 -16 -16 -15 -14 -13 -13 -12 -11 -10 -10 -9 -9 -9 -9 -8 -9 -8 -8 -8 -8 -8 -8 -7 -7 -6
-9 -9 -10 -11 -12 -13 -13 -13 -14 -15 -15 -15 -15 -16 -16 -17 -16 -17 -17 -17 -16 -15 -15 -14 -13 -12 -12 -11 -10 -10 -9 -9 -9 -9 -9 -9 -9 -9 -9 -8 -8 -7 -7
-9 -9 -10 -11 -13 -13 -13 -14 -14 -15 -15 -15 -16 -16 -17 -17 -18 -18 -18 -17 -17 -16 -16 -15 -14 -14 -13 -12 -11 -10 -10 -10 -10 -10 -10 -9 -9 -9 -9 -9 -8 -8 -8
-10 -10 -10 -12 -13 -13 -13 -14 -15 -15 -15 -15 -16 -16 -17 -17 -18 -18 -18 -18 -17 -17 -17 -16 -15 -14 -14 -13 -12 -12 -11 -11 -11 -10 -10 -10 -10 -9 -9 -9 -9 -9 -8
-10 -10 -11 -12 -13 -13 -13 -14 -14 -15 -15 -15 -16 -16 -16 -16 -17 -18 -18 -18 -18 -18 -17 -16 -16 -15 -14 -14 -13 -13 -12 -12 -12 -11 -11 -11 -11 -10 -10 -10 -9 -9 -8
-10 -10 -11 -12 -12 -13 -13 -14 -14 -14 -15 -15 -15 -16 -16 -16 -17 -17 -17 -17 -17 -17 -17 -17 -16 -16 -15 -15 -14 -14 -13 -13 -13 -12 -12 -12 -11 -11 -10 -10 -9 -9 -9
-10 -11 -11 -12 -12 -13 -13 -14 -14 -14 -15 -15 -15 -15 -15 -15 -16 -17 -17 -17 -17 -17 -17 -17 -16 -16 -16 -15 -14 -14 -14 -14 -13 -13 -13 -12 -12 -11 -11 -10 -10 -9 -9
-10 -11 -11 -12 -12 -13 -14 -14 -14 -14 -15 -15 -15 -15 -15 -15 -16 -16 -17 -17 -17 -17 -17 -16 -16 -16 -16 -15 -14 -15 -15 -14 -14 -14 -13 -13 -13 -12 -11 -11 -10 -10 -9
Height
1547 1545 1543 1540 1538 1535 1533 1530 1527 1525 1522 1519 1515 1512 1508 1504 1501 1497 1494 1491 1487 1483 1479 1476 1473 1472 1469 1467 1466 1464 1463 1462 1458 1458 1458 1456 1456 1456 1458 1459 1458 1458 1459
1544 1542 1539 1537 1534 1532 1530 1527 1523 1520 1517 1513 1509 1505 1502 1497 1493 1489 1485 1482 1478 1475 1470 1466 1463 1462 1458 1456 1455 1454 1452 1452 1451 1448 1449 1447 1446 1446 1445 1444 1446 1446 1447
1541 1539 1536 1534 1531 1528 1525 1522 1519 1515 1512 1508 1504 1499 1495 1491 1487 1483 1480 1475 1470 1467 1462 1458 1453 1451 1449 1447 1443 1441 1442 1441 1440 1439 1438 1439 1438 1437 1435 1435 1435 1434 1434
1538 1536 1533 1531 1528 1525 1522 1519 1515 1511 1507 1503 1499 1494 1490 1486 1482 1478 1474 1468 1463 1458 1454 1450 1446 1443 1440 1437 1435 1432 1429 1428 1429 1429 1428 1429 1428 1428 1427 1426 1425 1426 1424
1536 1533 1531 1528 1526 1522 1519 1515 1511 1508 1503 1499 1494 1490 1486 1481 1477 1473 1468 1461 1455 1449 1445 1441 1438 1434 1431 1428 1426 1421 1422 1417 1416 1416 1416 1417 1419 1419 1417 1418 1417 1417 1415
1534 1531 1529 1526 1523 1519 1515 1511 1507 1503 1498 1493 1489 1484 1479 1476 1472 1467 1462 1454 1447 1442 1436 1431 1427 1423 1420 1418 1415 1413 1412 1409 1405 1405 1406 1405 1407 1409 1410 1410 1410 1410 1407
1532 1529 1526 1523 1519 1516 1512 1507 1502 1497 1493 1488 1483 1478 1474 1469 1465 1459 1453 1446 1439 1433 1428 1423 1417 1413 1410 1406 1403 1400 1398 1396 1395 1395 1394 1395 1397 1399 1402 1402 1403 1402 1400
1529 1526 1523 1520 1516 1512 1508 1503 1498 1493 1488 1482 1477 1473 1467 1462 1456 1450 1444 1436 1430 1424 1418 1413 1408 1402 1398 1396 1391 1387 1384 1382 1382 1382 1383 1385 1388 1390 1392 1395 1395 1393 1391
1527 1523 1520 1517 1513 1509 1504 1499 1495 1489 1483 1477 1473 1467 1460 1453 1448 1442 1435 1428 1420 1413 1408 1402 1398 1392 1387 1386 1381 1375 1371 1368 1369 1370 1373 1378 1380 1381 1383 1386 1386 1387 1381
1524 1521 1518 1514 1510 1506 1501 1496 1491 1485 1479 1473 1466 1460 1454 1447 1441 1435 1430 1422 1413 1405 1397 1390 1385 1380 1375 1372 1370 1366 1360 1358 1360 1361 1363 1367 1369 1371 1374 1376 1378 1377 1377
1521 1518 1515 1511 1507 1502 1497 1492 1486 1480 1474 1466 1459 1453 1447 1441 1433 1429 1423 1415 1407 1397 1389 1379 1371 1366 1361 1357 1355 1352 1347 1349 1350 1352 1354 1357 1359 1361 1364 1366 1368 1368 1368
1517 1515 1511 1506 1503 1498 1493 1487 1482 1476 1468 1461 1453 1445 1441 1434 1428 1421 1415 1409 1402 1392 1381 1370 1359 1350 1345 1339 1336 1333 1334 1337 1338 1341 1344 1348 1350 1352 1354 1357 1358 1358 1358
1513 1511 1507 1503 1499 1494 1488 1483 1477 1471 1464 1457 1450 1443 1434 1428 1421 1415 1407 1401 1393 1384 1373 1359 1346 1334 1327 1321 1318 1319 1324 1327 1330 1333 1337 1340 1343 1345 1347 1349 1350 1350 1349
1509 1506 1502 1498 1494 1490 1486 1480 1475 1469 1462 1456 1448 1440 1432 1424 1417 1409 1402 1393 1384 1373 1361 1344 1330 1323 1318 1313 1310 1313 1317 1323 1327 1330 1332 1335 1337 1340 1342 1342 1342 1343 1342
1506 1502 1498 1494 1490 1485 1481 1477 1472 1468 1463 1456 1449 1441 1431 1422 1415 1409 1401 1391 1382 1371 1356 1339 1326 1320 1317 1317 1316 1317 1320 1323 1325 1327 1329 1331 1334 1336 1336 1337 1337 1336 1335
1502 1498 1494 1490 1486 1481 1475 1470 1468 1464 1458 1454 1447 1440 1431 1424 1415 1406 1397 1389 1381 1369 1354 1343 1329 1322 1319 1319 1319 1320 1322 1323 1324 1326 1328 1330 1331 1332 1332 1332 1332 1330 1329
1498 1495 1491 1487 1483 1478 1472 1466 1455 1453 1452 1446 1441 1434 1427 1419 1410 1401 1394 1387 1378 1370 1360 1347 1340 1332 1326 1321 1321 1322 1325 1326 1327 1328 1329 1329 1329 1329 1329 1328 1327 1326 1323
1495 1492 1488 1484 1480 1475 1472 1466 1459 1450 1440 1434 1433 1428 1421 1414 1405 1397 1391 1383 1374 1368 1364 1356 1350 1343 1337 1334 1330 1328 1329 1330 1330 1330 1329 1329 1330 1329 1328 1326 1324 1322 1319
1491 1488 1485 1481 1477 1473 1469 1463 1457 1450 1444 1436 1426 1421 1415 1408 1401 1396 1390 1385 1379 1373 1368 1362 1357 1352 1346 1342 1340 1337 1336 1335 1334 1332 1331 1331 1330 1328 1326 1325 1322 1319 1316
1488 1485 1481 1477 1473 1469 1465 1459 1453 1448 1442 1435 1427 1419 1411 1404 1396 1391 1387 1383 1379 1375 1371 1366 1362 1358 1353 1349 1345 1344 1341 1339 1337 1337 1335 1333 1331 1329 1326 1324 1321 1317 1313
1484 1481 1478 1474 1470 1466 1461 1456 1451 1446 1439 1432 1426 1419 1414 1406 1398 1392 1387 1382 1378 1375 1371 1367 1364 1360 1357 1354 1350 1347 1345 1343 1341 1339 1336 1334 1332 1329 1326 1323 1320 1317 1312
1481 1478 1474 1471 1467 1463 1458 1454 1449 1443 1437 1430 1423 1416 1410 1404 1397 1391 1385 1381 1376 1373 1370 1366 1363 1361 1358 1355 1352 1349 1347 1345 1342 1340 1337 1336 1333 1329 1326 1322 1319 1315 1311
1477 1474 1471 1468 1464 1460 1455 1451 1446 1440 1434 1427 1421 1413 1407 1400 1394 1388 1382 1376 1372 1368 1365 1362 1359 1358 1356 1354 1352 1349 1347 1345 1343 1340 1338 1336 1333 1329 1326 1323 1319 1314 1310
1473 1471 1468 1464 1461 1456 1452 1447 1443 1437 1432 1425 1418 1412 1405 1398 1391 1385 1379 1373 1367 1363 1360 1357 1354 1352 1351 1350 1349 1348 1346 1344 1341 1339 1337 1335 1332 1329 1326 1323 1318 1314 1311
1470 1467 1464 1461 1457 1453 1449 1445 1440 1434 1428 1422 1416 1409 1403 1396 1389 1382 1376 1369 1363 1358 1354 1350 1348 1345 1344 1343 1344 1343 1342 1340 1338 1336 1335 1333 1331 1328 1325 1321 1318 1315 1312
1466 1463 1460 1457 1454 1450 1446 1441 1437 1432 1425 1419 1413 1407 1400 1393 1386 1379 1372 1365 1359 1353 1348 1343 1340 1338 1336 1335 1335 1336 1336 1335 1334 1332 1331 1330 1328 1326 1323 1320 1318 1314 1311
Wind_Speed
3 7 12 17 20 23 22 19 20 21 24 26 29 31 32 33 35 35 35 36 34 32 33 37 39 39 40 37 34 33 33 33 38 39 40 42 44 43 42 40 41 41 41
9 13 17 19 21 21 23 24 26 27 28 28 29 30 30 30 31 31 32 32 36 39 32 33 26 30 40 40 39 38 37 38 40 40 36 38 39 37 37 39 38 42 43
12 15 17 21 23 23 25 25 26 27 27 28 29 30 32 32 33 33 30 27 29 34 39 40 43 42 35 32 41 42 40 38 38 40 41 39 38 37 35 34 35 36 38
17 18 18 19 21 23 25 26 27 28 29 31 32 32 31 31 30 29 32 34 35 33 33 36 38 40 43 40 36 35 45 41 37 38 40 38 37 38 36 35 35 34 35
16 16 18 20 22 24 26 28 29 29 31 32 31 29 34 32 29 30 31 33 37 40 41 41 42 43 38 32 40 44 36 42 38 39 40 39 37 38 36 34 34 33 33
17 19 20 22 24 25 26 30 30 32 33 31 30 36 32 30 29 33 37 42 44 45 43 41 40 40 36 34 32 33 40 38 42 42 39 39 37 33 33 35 34 33 35
18 20 22 24 26 27 30 31 30 34 35 37 35 31 31 35 38 36 41 38 40 38 36 35 41 40 41 42 39 35 35 38 40 45 42 43 37 32 31 33 34 35 39
16 22 24 26 26 29 32 30 32 34 39 36 34 35 38 38 42 42 34 38 43 44 44 44 43 44 45 43 40 40 38 38 41 42 44 46 39 32 32 34 36 39 41
18 22 25 25 27 30 30 30 33 38 36 35 33 41 41 42 37 38 42 38 40 44 43 40 36 37 46 43 42 42 39 39 38 37 42 39 35 32 31 30 32 34 42
20 22 24 24 27 27 28 32 36 34 32 38 43 40 36 42 41 35 35 39 42 43 45 47 48 48 48 46 43 41 39 37 36 37 36 39 32 32 32 33 34 35 35
21 23 23 24 25 26 31 33 31 33 38 41 41 42 43 42 42 37 38 37 39 44 48 50 51 48 46 42 41 40 39 35 36 41 44 34 29 30 32 32 32 34 35
22 23 23 24 25 28 31 29 33 36 39 40 43 45 42 47 41 42 38 36 37 42 47 53 54 50 47 43 41 38 34 31 35 41 32 28 28 28 31 30 27 27 31
23 23 22 23 26 28 28 32 34 35 37 39 41 40 46 45 49 44 41 41 42 43 49 54 57 52 42 36 31 26 24 29 31 24 25 24 22 21 18 19 22 25 27
22 22 23 25 27 27 30 30 31 32 34 36 41 42 45 46 45 45 46 47 47 49 55 59 47 27 19 18 10 11 14 20 16 16 15 13 12 14 18 17 17 19 20
21 22 22 25 26 30 29 30 30 27 26 31 33 36 39 40 43 40 40 42 42 47 51 50 46 26 18 11 4 2 6 8 11 11 10 9 12 12 12 11 13 14 17
20 21 23 25 28 27 31 36 30 25 26 27 27 28 33 33 35 38 36 35 38 39 49 47 53 23 20 7 5 6 6 6 6 4 4 5 6 6 6 7 9 10 13
19 20 22 25 25 26 32 36 41 38 33 34 29 30 30 32 35 34 31 33 31 35 46 50 51 42 33 10 5 2 2 5 5 6 4 4 5 2 1 4 5 7 11
18 19 22 22 22 25 31 33 34 38 43 45 40 33 34 33 36 28 29 30 34 32 37 44 45 44 39 26 25 24 16 14 15 13 13 11 9 9 8 8 7 8 11
17 19 22 20 21 25 28 33 32 34 36 40 44 42 41 39 37 30 26 28 31 31 31 35 39 37 36 32 24 20 21 19 15 13 13 11 9 11 12 11 11 10 12
16 19 19 20 23 26 28 31 32 32 34 36 39 41 42 45 41 37 33 30 27 27 26 27 28 30 30 28 28 23 19 17 18 18 17 13 11 12 12 14 15 16 15
17 19 18 20 23 25 26 28 32 32 32 35 36 37 37 38 36 33 32 31 26 24 23 23 22 23 23 24 22 21 20 16 18 17 20 20 18 18 17 13 15 16 17
18 18 18 20 23 24 24 26 30 31 31 34 36 37 37 34 33 32 30 28 24 22 21 21 20 18 18 19 19 19 17 17 18 19 19 22 20 18 18 18 17 17 19
19 17 18 20 22 22 24 27 28 29 31 33 35 36 37 36 34 32 30 28 27 25 21 21 21 17 16 13 13 13 14 16 18 20 21 22 20 19 19 20 20 17 20
18 17 17 20 20 21 24 27 28 28 29 32 34 35 35 35 35 34 33 31 27 24 22 22 22 20 18 17 11 11 12 14 18 18 18 18 18 18 19 20 20 19 17
17 16 17 19 19 22 24 26 27 28 30 31 33 34 35 34 35 35 36 34 31 28 25 23 22 22 22 22 17 12 9 10 12 15 15 16 17 17 18 19 20 19 16
16 16 17 18 18 21 24 26 27 28 31 32 33 33 34 35 35 36 38 37 36 33 29 26 23 21 22 24 23 21 18 15 14 15 15 16 17 17 17 18 19 19 19
Wind_Direction
206 272 290 301 311 314 314 313 311 305 307 306 304 300 300 302 300 298 296 295 295 296 297 298 293 293 291 290 289 283 274 267 270 273 272 272 274 275 270 264 264 262 257
310 308 306 308 308 310 313 315 315 315 313 313 313 309 311 314 314 315 314 310 308 297 298 281 297 297 283 280 278 280 278 273 271 272 273 277 277 279 281 276 268 261 262
313 314 314 318 322 325 324 326 327 327 327 325 322 321 319 315 310 310 316 313 307 303 302 303 298 296 288 293 275 272 270 272 270 271 274 276 278 283 285 281 280 277 270
327 325 327 330 334 335 335 337 339 337 334 330 328 326 327 325 322 325 317 310 308 308 307 309 307 308 306 291 291 282 269 263 266 269 268 274 277 282 283 284 284 284 285
342 341 342 338 339 341 340 337 337 334 331 328 331 325 323 326 327 323 317 312 309 306 305 305 304 303 304 300 292 286 281 261 261 267 265 267 270 276 277 283 284 287 286
345 341 341 340 341 341 337 335 334 333 332 337 328 324 331 327 321 315 308 309 307 307 308 304 302 302 302 299 299 289 284 279 259 262 264 266 270 268 272 279 281 284 287
336 334 339 339 339 338 335 334 337 334 332 330 331 335 326 316 321 316 318 313 311 308 307 306 303 300 296 299 298 294 285 280 274 255 259 265 269 265 268 271 274 275 276
323 330 334 336 336 333 334 337 333 328 327 331 330 322 319 319 319 321 320 313 314 311 307 304 301 301 299 299 301 297 286 281 271 266 249 261 270 271 267 268 272 276 277
318 327 332 334 331 330 335 330 327 326 329 332 327 323 323 324 326 319 322 320 315 315 314 311 306 296 295 299 300 299 289 277 273 272 250 250 262 263 263 265 265 270 272
319 324 327 328 327 332 327 326 327 330 331 324 326 330 332 327 331 328 324 318 315 315 314 310 305 304 298 298 299 297 285 272 274 261 251 252 252 257 260 261 263 262 264
315 324 326 330 331 327 326 329 335 332 328 332 333 335 334 334 330 328 326 320 319 317 314 313 309 304 301 297 292 289 270 262 264 253 255 245 251 255 262 258 254 257 259
322 327 329 333 330 329 330 336 336 335 335 337 338 336 333 334 332 330 327 321 318 318 315 314 312 311 307 298 289 275 261 260 258 244 232 236 249 257 264 259 254 254 256
327 329 332 332 332 336 341 338 339 339 339 339 337 330 331 332 332 334 332 329 325 320 316 316 315 311 305 297 283 268 249 254 228 224 236 249 257 259 254 254 256 261 262
328 331 334 335 338 341 338 342 343 341 340 338 332 331 328 332 334 336 332 330 330 328 329 328 328 318 318 334 305 272 238 220 229 242 253 253 245 248 253 257 260 263 268
330 333 337 339 340 338 341 346 343 342 339 331 329 327 331 331 332 330 330 330 331 331 337 339 345 334 317 313 325 244 223 226 243 243 234 242 243 246 251 253 259 268 272
332 336 340 339 339 340 344 344 345 339 337 337 336 334 330 328 331 331 334 335 336 347 349 351 360 359 5 332 299 265 253 253 240 208 196 219 235 246 258 262 261 276 292
334 337 336 339 341 346 347 343 341 343 343 345 344 340 339 336 336 338 340 341 345 355 4 3 7 13 34 23 306 188 125 103 115 114 112 89 40 24 329 332 301 305 313
334 335 336 341 343 349 341 341 341 343 343 346 348 346 344 342 343 344 346 346 353 1 6 8 6 17 22 37 57 69 70 78 76 79 82 71 53 33 22 11 351 336 337
334 336 337 340 345 343 338 342 344 345 343 341 346 349 351 347 348 350 346 352 351 353 359 7 8 9 23 32 37 44 53 53 43 32 31 33 29 27 21 14 6 352 346
334 336 338 340 346 339 338 343 346 344 343 344 344 346 347 346 348 349 348 345 343 346 350 358 7 6 8 17 38 34 41 33 33 33 31 31 22 16 14 14 15 6 359
336 337 336 345 340 338 339 343 345 342 343 346 348 348 343 340 343 341 343 342 338 335 339 342 354 2 4 1 6 27 30 12 7 11 15 14 11 9 6 15 13 11 3
334 333 335 341 337 339 342 343 341 344 346 348 349 349 347 346 344 341 339 339 335 328 323 325 327 342 351 359 4 354 9 9 2 355 357 358 359 2 4 5 9 8 8
330 326 335 336 339 340 344 344 342 344 346 350 350 350 349 352 352 350 342 334 331 326 313 311 310 309 319 329 349 342 341 333 332 335 337 339 347 352 357 360 4 8 8
326 324 331 336 338 343 345 344 345 346 346 349 350 351 349 350 352 352 350 343 333 328 319 308 298 293 294 299 309 325 326 335 322 321 325 328 334 342 345 352 360 7 4
322 323 332 333 339 344 344 345 347 347 349 349 348 349 350 351 351 351 349 347 342 332 323 317 308 292 280 278 275 280 293 296 304 305 310 318 323 330 336 342 350 359 1
321 327 331 331 337 343 344 347 345 347 349 348 349 347 348 350 352 351 348 344 340 335 329 319 309 299 284 274 269 261 261 268 277 286 296 307 315 318 324 332 340 350 355